Location: *
(58.7167°N, 26.1833°E)
Time: 17:46:51
(UTC+00:00)

Nadezhda 1 Rocket - Pass Details

Date: 25 August 2019
Orbit: 942 x 1005 km, 83.0° (Epoch: 16 October)

Event Time Altitude Azimuth Distance (km) Brightness Sun altitude
Exits shadow 20:14:35 21° 176° (S) 2,025 5.2 -16.3°
Maximum altitude 20:18:51 70° 97° (E) 1,015 3.9 -16.6°
Drops below altitude 10° 20:24:56 10° 15° (NNE) 2,681 6.9 -17.0°
Sets 20:27:26 0° 14° (NNE) 3,626 7.8 -17.2°
